Location: Gniazdowice
(50.2124°N, 20.2673°E)
Time: 15:30:04
(UTC+00:00)

CZ-2D R/B - Pass Details

Date: 23 May 2024
Orbit: 791 x 843 km, 98.8° (Epoch: 12 June)

Event Time Altitude Azimuth Distance (km) Brightness Sun altitude
Rises 01:49:35 0° 9° (N) 3,414 6.4 -7.2°
Reaches altitude 10° 01:52:07 10° 1° (N) 2,474 5.4 -7.0°
Maximum altitude 01:57:03 36° 297° (WNW) 1,321 3.1 -6.4°
Drops below altitude 10° 02:01:56 10° 233° (SW) 2,443 3.9 -5.8°
Enters shadow 02:02:41 - 230° (SW) 2,714 4.1 -5.7°
